User: anonymous
Location: Prairie State College
(41.5244°N, 87.6382°W)
Time: 14:03:25
(UTC-05:00)
Language:

Cosmos 1943 - Orbit

View from above orbital plane
View from above orbital plane
View from above satellite
View from above satellite

Ground track
Ground track

The orbit data is extracted from the following two-line orbital elements,

1 19119U 88039A   14106.33252385 -.00000121  00000-0 -37767-4 0  1220
2 19119 071.0051 013.0037 0011226 007.5801 130.7526 14.14915943338306
Epoch (UTC): 16 April 2014 07:58:50
Eccentricity: 0.0011226
inclination: 71.0051°
perigee height: 834 km
apogee height: 851 km
right ascension of ascending node: 13.0037°
argument of perigee: 7.5801°
revolutions per day: 14.14915943
mean anomaly at epoch: 130.7526°
orbit number at epoch: 33830

The dashed part of the orbit path shows where the satellite is in the earth's shadow,  

DLR